Location: Newark
(43.0000°N, 1.6781°W)
Time: 19:19:49
(UTC+00:00)

Vanguard 1 - All Passes

Search period start: 19 April 2021 00:00
Search period end: 29 April 2021 00:00
Orbit: 648 x 3834 km, 34.3° (Epoch: 18 April)

Date Brightness Start Highest point End Pass type
(mag) Time Alt. Az. Time Alt. Az. Time Alt. Az.
19 Apr - 11:42:40 10° S 11:52:09 24° SE 12:05:35 10° E daylight
19 Apr - 13:58:55 10° SW 14:13:22 54° SSE 14:35:07 10° E daylight
19 Apr - 16:19:37 10° WSW 16:38:26 67° S 17:01:33 10° ESE daylight
19 Apr - 18:43:09 10° W 19:04:32 56° SSW 19:24:42 10° SE visible
19 Apr - 21:10:22 10° W 21:28:01 29° SW 21:42:35 10° S visible
20 Apr - 12:01:51 10° SSW 12:12:16 31° SE 12:28:01 10° E daylight
20 Apr - 14:19:23 10° SW 14:34:16 59° SSE 14:56:39 10° E daylight
20 Apr - 16:40:37 10° W 16:59:45 66° S 17:22:42 10° ESE daylight
20 Apr - 19:04:32 10° W 19:25:31 50° SSW 19:45:02 10° SE visible
20 Apr - 21:33:12 10° W 21:48:15 22° SW 22:01:05 10° S visible
21 Apr - 12:21:31 10° SSW 12:32:34 38° SE 12:50:03 10° E daylight
21 Apr - 14:40:01 10° WSW 14:55:19 63° SSE 15:18:08 10° E daylight
21 Apr - 17:01:40 10° W 17:21:03 64° SSW 17:43:43 10° ESE daylight
21 Apr - 19:26:03 10° W 19:46:19 43° SW 20:05:05 10° SSE visible
21 Apr - 21:57:19 10° W 22:08:23 16° SW 22:18:17 10° SSW visible
22 Apr - 10:28:11 10° SSE 10:33:30 14° SE 10:40:08 10° E daylight
22 Apr - 12:41:32 10° SW 12:53:02 45° SSE 13:11:51 10° E daylight
22 Apr - 15:00:46 10° WSW 15:16:28 65° S 15:39:33 10° E daylight
22 Apr - 17:22:46 10° W 17:42:17 60° SSW 18:04:34 10° SE daylight
22 Apr - 19:47:47 10° W 20:06:59 36° SW 20:24:45 10° SSE visible
23 Apr - 10:46:11 10° S 10:53:27 20° SE 11:03:44 10° E daylight
23 Apr - 13:01:47 10° SW 13:13:41 51° SSE 13:33:31 10° E daylight
23 Apr - 15:21:36 10° WSW 15:37:41 66° S 16:00:54 10° ESE daylight
23 Apr - 17:43:58 10° W 18:03:26 55° SSW 18:25:12 10° SE daylight
23 Apr - 20:09:51 10° W 20:27:31 30° SW 20:43:55 10° S visible
24 Apr - 11:05:16 10° S 11:13:33 27° SE 11:26:15 10° E daylight
24 Apr - 13:22:12 10° SW 13:34:30 57° SSE 13:55:07 10° E daylight
24 Apr - 15:42:31 10° W 15:58:57 65° S 16:22:08 10° ESE daylight
24 Apr - 18:05:14 10° W 18:24:28 49° SSW 18:45:33 10° SE daylight
24 Apr - 20:32:33 10° W 20:47:56 23° SW 21:02:22 10° S visible
25 Apr - 11:24:54 10° SSW 11:33:47 34° SE 11:48:19 10° E daylight
25 Apr - 13:42:47 10° WSW 13:55:27 61° SSE 14:16:40 10° E daylight
25 Apr - 16:03:29 10° W 16:20:12 62° S 16:43:14 10° ESE daylight
25 Apr - 18:26:38 10° W 18:45:23 43° SSW 19:05:36 10° SSE daylight
25 Apr - 20:56:27 10° W 21:08:15 17° SW 21:19:32 10° SSW visible
26 Apr - 09:33:44 10° SE 09:35:24 10° ESE 09:37:13 10° ESE daylight
26 Apr - 11:44:52 10° SSW 11:54:12 41° SSE 12:10:08 10° E daylight
26 Apr - 14:03:29 10° WSW 14:16:30 63° S 14:38:09 10° E daylight
26 Apr - 16:24:30 10° W 16:41:24 58° SSW 17:04:09 10° SE daylight
26 Apr - 18:48:16 10° W 19:06:11 36° SW 19:25:15 10° SSE daylight
26 Apr - 21:24:30 10° WSW 21:28:32 11° SW 21:32:30 10° SW visible
27 Apr - 09:50:14 10° SSE 09:55:23 16° SE 10:02:14 10° E daylight
27 Apr - 12:05:06 10° SW 12:14:47 48° SSE 12:31:48 10° E daylight
27 Apr - 14:24:15 10° WSW 14:37:38 64° S 14:59:34 10° ESE daylight
27 Apr - 16:45:35 10° W 17:02:34 53° SSW 17:24:50 10° SE daylight
27 Apr - 19:10:16 10° W 19:26:53 29° SW 19:44:22 10° S visible
28 Apr - 10:09:06 10° S 10:15:27 23° SE 10:24:54 10° E daylight
28 Apr - 12:25:31 10° SW 12:35:31 53° SSE 12:53:24 10° E daylight
28 Apr - 14:45:05 10° W 14:58:48 63° S 15:20:52 10° ESE daylight
28 Apr - 17:06:46 10° W 17:23:39 47° SSW 17:45:13 10° SE daylight
28 Apr - 19:32:52 10° W 19:47:29 23° SW 20:02:42 10° S visible
